Tracking 28794 objects as of 20-Apr-2024
HD Live streaming from Space Station
objects crossing your sky now

THOR ABLESTAR DEB

Track THOR ABLESTAR DEB now!
10-day predictions


NORAD ID: 48811
Int'l Code: 1961-015MP
Perigee: 897.7 km
Apogee: 1,051.8 km
Inclination: 67.1 °
Period: 104.4 minutes
Semi major axis: 7345 km
RCS: Unknown
Launch date: June 29, 1961
Source: United States (US)
Launch site: AIR FORCE EASTERN TEST RANGE (AFETR)

Note: This is SATELLITE DEBRIS
Your satellite tracking list
Your tracking list is empty




NASA's NSSDC Master Catalog

Two Line Element Set (TLE):
1 48811U 61015MP  24109.31639448  .00000980  00000-0  98896-3 0  9999
2 48811  67.0605  66.2499 0104884   1.7571 358.3851 13.78959264523681
Source of the keplerian elements: AFSPC